Flag for Brazil Weather past 2 weeks in Vitória, Espírito Santo, Brazil

Now
66 °F

Scattered clouds.


Feels Like: 66 °F
Forecast: 76 / 90 °F
Wind: 2 mph from Southwest

Location: Belo Horizonte Airport

Current Time: Jan 27, 2015 at 8:41:22 AM

Latest Report: Jan 27, 2015 at 8:00 AM


Visibility: 5 mi

Pressure: 30.09 "Hg

Humidity: 94%

Dew point: 64 °F

Location of VitóriaLocation

Historic Weather in Vitória — Graph

°F

Vitória temperature yesterday

Maximum temperature yesterday: 86 °F (at 3:00 PM)
Minimum temperature yesterday: 66 °F (at 3:00 AM)
Average temperature yesterday: 73 °F

Past Weeks' High & Low Weather Summary

 TemperatureHumidityPressure
High95 °F (Jan 21, 4:00 PM)94% (Jan 24, 5:00 PM)30.18 "Hg (Jan 24, 5:00 PM)
Low64 °F (Jan 25, 12:00 AM)16% (Jan 12, 4:00 PM)29.50 "Hg (Jan 12, 10:00 AM)
Average77 °F52%30.06 "Hg
* Reported Jan 12 7:00 AM — Jan 27 7:00 AM, Vitória, Weather by CustomWeather, © 2014

Note: Actual official high and low records may vary slightly from our data, if they occured in-between our weather recording intervals... More about our weather records

Advertising

Vitória weather history for previous 24 hours

 ConditionsComfort  
Time TempWeatherWind HumidityBarometerVisibility
7:00 AM
Jan 27
66 °FSnow. Partly cloudy.1 mph94%30.09 "Hg5 mi
6:00 AM66 °FPassing clouds.No wind94%30.07 "HgN/A
5:00 AM66 °FFog.6 mph94%30.07 "Hg1 mi
4:00 AM66 °FFog.6 mph94%30.07 "Hg1 mi
3:00 AM66 °FLight rain. Passing clouds.5 mph94%30.09 "Hg1 mi
2:00 AM66 °FLight rain. Passing clouds.7 mph88%30.12 "Hg1 mi
1:01 AM66 °FFog.8 mph94%30.12 "Hg0 mi
12:00 AM66 °FPassing clouds.9 mph94%30.15 "HgN/A
11:00 PM
Jan 26
66 °FThunderstorms. Passing clouds.6 mph94%N/AN/A
10:00 PM68 °FPassing clouds.9 mph83%30.12 "HgN/A
9:00 PM70 °FPartly cloudy.14 mph83%30.07 "HgN/A
8:00 PM72 °FScattered clouds.9 mph83%30.04 "HgN/A
7:00 PM75 °FScattered clouds.10 mph69%30.01 "HgN/A
6:00 PM73 °FScattered clouds.8 mph74%29.98 "HgN/A
5:00 PM75 °FScattered clouds.24 mph65%29.98 "HgN/A
4:00 PM79 °FLight rain. Scattered clouds.7 mph58%30.01 "HgN/A
3:00 PM86 °FScattered clouds.7 mph38%30.01 "HgN/A
2:00 PM84 °FScattered clouds.8 mph43%30.07 "HgN/A
1:00 PM84 °FPartly sunny.7 mph43%30.09 "HgN/A
12:00 PM82 °FScattered clouds.7 mph48%30.12 "HgN/A
11:00 AM81 °FScattered clouds.7 mph51%30.12 "HgN/A
10:00 AM75 °FPassing clouds.7 mph61%30.09 "HgN/A
9:00 AM75 °FSunny.2 mph65%30.09 "Hg10 mi
8:00 AM68 °FSunny.2 mph88%30.09 "Hg10 mi
Weather by CustomWeather, © 2014

See weather overviewHow to use our weather pages